[[{"header":{"parameterUnit":"m.s-1","parameterCategory":1,"la1":30.2991,"la2":30.254,"lo1":-89.0895,"lo2":-89.0444,"dy":0.0017,"dx":0.0017,"nx":28,"ny":28,"refTime":"2024-07-31T09:00:00:Z","depth":0,"parameterNumber":2,"parameterNumberName":"U-component_of_WINDS"},"data":[0,0,0,0,0,0,0,0,0,0,0,0,0,0,0,0,0,0,0,0,0,0,0,0,0,0,0,0,0,0,0,0,0,0,0,0,0,0,0,0,0,0,0,0,0,0,0,0,0,0,0,0,0,0,0,0,0,0,1.947,1.947,0,1.9512,1.9513,1.9513,1.948,1.9479,1.9477,1.9476,1.9521,1.9524,1.9526,0,0,0,0,0,0,0,0,0,0,0,0,0,1.9359,1.9361,1.947,1.947,1.9471,1.9512,1.9513,1.9513,1.9481,1.9479,1.9477,1.9475,1.952,1.9523,1.9526,0,0,0,0,0,0,0,0,0,0,0,0,0,1.9405,1.9362,1.947,1.9459,1.9459,1.9512,1.9513,1.9514,1.9481,1.9479,1.9477,1.9475,1.9519,1.9523,1.9527,1.9593,0,0,1.9538,1.954,0,0,0,0,0,0,0,0,1.9402,1.9409,1.946,1.946,1.946,1.9489,1.949,1.954,1.9481,1.9473,1.9476,1.9474,1.9512,1.9516,1.9529,1.9595,1.9597,1.9539,1.9541,1.9543,1.9544,0,0,0,0,0,0,0,1.9399,1.9407,1.9487,1.9461,1.9461,1.9452,1.9456,1.95,1.9504,1.9473,1.9471,1.9476,1.9512,1.9526,1.953,1.9598,1.9539,1.9542,1.9544,1.9546,1.9716,1.9718,0,0,0,0,0,0,1.9397,1.9405,1.9485,1.9488,1.9425,1.9456,1.9461,1.9482,1.9503,1.9505,1.9478,1.9475,1.952,1.9526,1.9531,1.9607,1.9543,1.9546,1.9548,1.9714,1.9716,1.9719,0,0,0,0,0,0,1.9395,1.9404,1.9484,1.9446,1.9455,1.946,1.9484,1.9484,1.9497,1.9507,1.9508,1.9492,1.9519,1.9526,1.9577,1.9608,1.9548,1.9551,1.9711,1.9714,1.9717,1.9761,0,0,0,0,0,0,1.9392,1.9404,1.943,1.9446,1.9457,1.9529,1.9486,1.9486,1.9504,1.95,1.952,1.9521,1.9518,1.9571,1.9581,1.9612,1.9554,1.9708,1.9712,1.9716,1.9757,1.9766,1.9773,0,0,0,0,0,1.9388,1.9441,1.9431,1.9441,1.9489,1.9531,1.9537,1.9531,1.9507,1.9532,1.9537,1.952,1.9604,1.9577,1.9587,1.9621,1.9706,1.9711,1.9716,1.9753,1.9764,1.9773,0,0,0,0,0,0,1.9429,1.9443,1.9432,1.9493,1.9511,1.9525,1.9557,1.9543,1.9569,1.9564,1.9556,1.9561,1.9614,1.9623,1.9592,1.9684,1.9651,1.9658,1.9676,1.9686,1.9694,1.969,1.9557,0,0,0,0,0,1.9445,1.9478,1.9489,1.9541,1.955,1.9552,1.957,1.9564,1.9582,1.959,1.9599,1.9618,1.9647,1.9668,1.9696,1.9759,1.9761,1.9786,1.9795,1.9801,1.9807,1.9837,1.9847,1.9735,1.9735,1.9735,0,0,1.9479,1.9491,1.9512,1.9549,1.9562,1.9595,1.9559,1.9596,1.962,1.9596,1.9643,1.965,1.9671,1.9726,1.9752,1.9735,1.9838,1.9808,1.9813,1.9815,1.9843,1.9854,1.9863,1.9739,1.9738,1.9738,0,0,1.9557,1.957,1.9613,1.9626,1.9646,1.9646,1.9657,1.9673,1.9676,1.9723,1.9705,1.9733,1.9786,1.98,1.9814,1.9894,1.9878,1.9903,1.9945,1.9974,1.9983,1.9991,2.0016,2.0026,1.991,1.991,1.991,0,1.9596,1.9645,1.9637,1.9675,1.969,1.9669,1.9711,1.9725,1.9753,1.9764,1.9746,1.9809,1.9821,1.9878,1.9897,1.9911,1.992,1.99,1.9982,1.999,1.9997,2.0021,2.0031,1.9912,1.9912,1.9912,1.9911,0,1.969,1.9724,1.9757,1.9782,1.9802,1.9842,1.984,1.9861,1.9853,1.9855,1.9901,1.9915,1.9944,1.9958,1.9951,2.0013,2.0002,1.9983,1.995,2.0011,2.0033,2.0042,1.9916,1.9915,1.9914,1.9914,0,0,1.9796,1.9815,1.9827,1.9836,1.9855,1.9881,1.9919,1.9947,1.9963,1.9983,2.0013,2.0057,2.0039,2.0055,2.0049,2.0075,2.0133,2.0053,2.0053,2.0065,2.0199,2.0211,2.0222,2.0124,2.0125,2.0127,2.0196,0,1.9871,1.9937,1.993,1.9992,2.0021,2.0,2.0033,2.0047,2.005,2.0075,2.0078,2.0108,2.0083,2.0092,2.0117,2.0121,2.016,2.0116,2.015,2.0151,2.0143,2.0234,2.0247,2.0312,2.0205,2.0206,2.0208,0,1.9969,1.9989,2.0054,2.0065,2.0077,2.0107,2.0129,2.0154,2.0169,2.0169,2.0185,2.0175,2.0211,2.0178,2.0228,2.0198,2.0212,2.0216,2.0218,2.0219,2.0181,2.0235,2.0333,2.0341,2.0222,2.0221,2.022,0,2.0035,2.0079,2.0122,2.0132,2.0147,2.0168,2.0175,2.0188,2.0204,2.0224,2.0234,2.0259,2.0272,2.0291,2.0286,2.0263,2.0336,2.0303,2.0335,2.0335,2.035,2.0348,2.0448,2.0363,2.0363,2.0362,2.0362,0,2.0118,2.0158,2.0152,2.0178,2.0221,2.0212,2.0255,2.026,2.0271,2.0297,2.0282,2.0306,2.03,2.0325,2.0322,2.0361,2.0368,2.0368,2.0366,2.0367,2.0367,2.0375,2.0369,2.0365,2.0364,2.0364,2.0364,0,2.0199,2.0197,2.0242,2.0251,2.0254,2.0285,2.0293,2.0317,2.0318,2.0351,2.0358,2.0359,2.0387,2.0384,2.0416,2.0414,2.0462,2.0456,2.0456,2.0454,2.0484,2.048,2.0591,2.0603,2.0512,2.0513,2.0514,0,2.0251,2.028,2.0292,2.0308,2.0316,2.0342,2.0357,2.035,2.0366,2.0384,2.0406,2.0432,2.0452,2.0496,2.05,2.0523,2.0516,2.0553,2.052,2.0519,2.0513,2.051,2.0512,2.0559,2.056,2.0561,2.0562,0,2.0343,2.034,2.0362,2.0383,2.0401,2.0418,2.0433,2.0447,2.0441,2.046,2.0487,2.0502,2.0533,2.0558,2.0579,2.0586,2.0572,2.0572,2.058,2.0581,2.0578,2.0577,2.0471,2.0569,2.0569,2.0568,2.0568,2.0567,2.0409,2.0432,2.0443,2.0468,2.0478,2.0491,2.0513,2.0516,2.0538,2.0561,2.0556,2.0586,2.0598,2.0625,2.0634,2.0657,2.0644,2.0656,2.0659,2.0661,2.0663,2.0577,2.0661,2.0661,2.0661,2.0661,2.0661,0,2.0497,2.0502,2.0525,2.0545,2.0564,2.0549,2.0564,2.058,2.0606,2.0618,2.0638,2.0667,2.0691,2.0695,2.0717,2.0734,2.0728,2.074,2.0738,2.0739,2.0676,2.0665,2.0744,2.0744,2.0744,2.0744,2.0744,2.0744,2.0545,2.0582,2.058,2.0622,2.0628,2.0656,2.0665,2.0677,2.0686,2.0719,2.0738,2.0741,2.0749,2.0772,2.0792,2.0792,2.08,2.0814,2.0812,2.0752,2.0744,2.0736,2.0725,2.0816,2.0816,2.0873,2.0873,2.0874]},{"header":{"parameterUnit":"m.s-1","parameterCategory":1,"la1":30.2991,"la2":30.254,"lo1":-89.0895,"lo2":-89.0444,"dy":0.0017,"dx":0.0017,"nx":28,"ny":28,"refTime":"2024-07-31T09:00:00:Z","depth":0,"parameterNumber":3,"parameterNumberName":"V-component_of_WINDS"},"data":[0,0,0,0,0,0,0,0,0,0,0,0,0,0,0,0,0,0,0,0,0,0,0,0,0,0,0,0,0,0,0,0,0,0,0,0,0,0,0,0,0,0,0,0,0,0,0,0,0,0,0,0,0,0,0,0,0,0,2.778,2.7781,0,2.7841,2.7842,2.7843,2.7815,2.7814,2.7813,2.7811,2.787,2.7873,2.7875,0,0,0,0,0,0,0,0,0,0,0,0,0,2.7635,2.7638,2.778,2.7781,2.7782,2.7841,2.7842,2.7843,2.7816,2.7814,2.7812,2.781,2.7869,2.7872,2.7876,0,0,0,0,0,0,0,0,0,0,0,0,0,2.7698,2.7639,2.778,2.7775,2.7776,2.7841,2.7842,2.7843,2.7816,2.7814,2.7812,2.781,2.7868,2.7872,2.7876,2.7948,0,0,2.789,2.7892,0,0,0,0,0,0,0,0,2.7694,2.7703,2.7775,2.7776,2.7776,2.7819,2.7812,2.7878,2.7817,2.7801,2.7811,2.7808,2.7854,2.786,2.7876,2.7951,2.7954,2.789,2.7893,2.7895,2.7896,0,0,0,0,0,0,0,2.769,2.77,2.7804,2.7776,2.7777,2.7769,2.7775,2.7825,2.7839,2.7802,2.78,2.7808,2.7854,2.7872,2.7877,2.7954,2.789,2.7894,2.7897,2.7898,2.809,2.8092,0,0,0,0,0,0,2.7686,2.7697,2.7802,2.7806,2.7729,2.7773,2.778,2.7807,2.7839,2.7841,2.781,2.7806,2.7865,2.7872,2.7879,2.7964,2.7895,2.7899,2.7901,2.8088,2.809,2.8093,0,0,0,0,0,0,2.7683,2.7696,2.78,2.7751,2.7764,2.7778,2.7808,2.781,2.7827,2.7845,2.7846,2.7825,2.7864,2.7873,2.7931,2.7966,2.7901,2.7905,2.8085,2.8088,2.8092,2.8136,0,0,0,0,0,0,2.7679,2.7695,2.7724,2.7752,2.7766,2.7853,2.7811,2.7812,2.7835,2.7832,2.786,2.7862,2.7863,2.7925,2.7936,2.7971,2.7908,2.8082,2.8086,2.8091,2.8132,2.8141,2.8149,0,0,0,0,0,2.7674,2.7733,2.7725,2.7738,2.7803,2.7855,2.7863,2.7863,2.7838,2.7866,2.7877,2.7861,2.7961,2.7931,2.7943,2.798,2.8079,2.8085,2.809,2.8128,2.8139,2.8149,0,0,0,0,0,0,2.7708,2.7737,2.7728,2.7799,2.7825,2.785,2.7886,2.7875,2.7908,2.7903,2.79,2.7907,2.7967,2.7979,2.7946,2.8051,2.8016,2.8024,2.804,2.8051,2.806,2.8055,2.7912,0,0,0,0,0,2.7724,2.7765,2.7787,2.7847,2.7861,2.7871,2.7894,2.7892,2.7918,2.7928,2.7943,2.7968,2.8004,2.8029,2.8063,2.8134,2.8138,2.8165,2.8173,2.818,2.8187,2.8223,2.8235,2.8111,2.8111,2.8111,0,0,2.7756,2.7777,2.7803,2.7854,2.7874,2.7915,2.788,2.7926,2.7955,2.7935,2.7991,2.8003,2.803,2.8094,2.8123,2.8106,2.8222,2.8187,2.8193,2.8196,2.823,2.8242,2.8252,2.8115,2.8114,2.8114,0,0,2.7836,2.7857,2.7909,2.793,2.796,2.7967,2.7979,2.8006,2.8013,2.807,2.8055,2.809,2.8153,2.8173,2.8191,2.8278,2.8264,2.8289,2.8334,2.8369,2.8379,2.8388,2.8417,2.8428,2.8296,2.8296,2.8296,0,2.7873,2.7936,2.7936,2.7983,2.8005,2.7989,2.804,2.806,2.81,2.8114,2.8095,2.8174,2.8191,2.8259,2.828,2.8296,2.8309,2.8286,2.8378,2.8386,2.8394,2.8423,2.8434,2.8299,2.8299,2.8298,2.8298,0,2.7978,2.8022,2.8059,2.8099,2.8126,2.8174,2.8181,2.8207,2.8203,2.8211,2.8267,2.8288,2.8325,2.8341,2.8337,2.8409,2.8397,2.8378,2.8343,2.8409,2.8435,2.8446,2.8303,2.8302,2.8301,2.83,0,0,2.8081,2.8121,2.8135,2.8152,2.8184,2.8217,2.8264,2.8302,2.8324,2.8352,2.839,2.8444,2.8427,2.8447,2.8445,2.8476,2.8542,2.8453,2.8454,2.8468,2.862,2.8633,2.8646,2.8533,2.8535,2.8537,2.8617,0,2.8163,2.8247,2.8248,2.8325,2.8364,2.8349,2.8389,2.8413,2.8421,2.8454,2.8463,2.8501,2.8475,2.8488,2.8518,2.8528,2.8572,2.8522,2.8567,2.8569,2.856,2.866,2.8675,2.8749,2.8628,2.8629,2.8631,0,2.827,2.8302,2.8382,2.8408,2.8425,2.8461,2.8496,2.8528,2.8554,2.8557,2.8581,2.8573,2.8619,2.8583,2.8646,2.8611,2.863,2.8637,2.864,2.8643,2.8603,2.8665,2.8773,2.8784,2.8647,2.8646,2.8645,0,2.8335,2.8399,2.8455,2.847,2.8502,2.8528,2.8542,2.8565,2.8588,2.8617,2.8632,2.8666,2.8684,2.871,2.8712,2.8686,2.8774,2.8739,2.8777,2.8777,2.8795,2.8794,2.8907,2.8809,2.8809,2.8809,2.8808,0,2.8426,2.8475,2.8484,2.8519,2.8573,2.8574,2.8627,2.8639,2.8659,2.8694,2.8683,2.8716,2.8717,2.875,2.8751,2.8801,2.881,2.8813,2.8812,2.8814,2.8813,2.8825,2.8819,2.8812,2.8811,2.881,2.881,0,2.8508,2.8516,2.8576,2.8602,2.8609,2.8648,2.8669,2.87,2.8708,2.8752,2.8762,2.8773,2.8811,2.8816,2.886,2.8861,2.8921,2.8916,2.8913,2.8912,2.8949,2.8945,2.9073,2.9089,2.8982,2.8983,2.8984,0,2.8565,2.8602,2.8632,2.8655,2.8671,2.8709,2.8732,2.8733,2.8758,2.8789,2.8817,2.8854,2.8884,2.8945,2.8956,2.8989,2.8984,2.9026,2.8988,2.8988,2.8983,2.898,2.8983,2.9033,2.9034,2.9035,2.9036,0,2.8664,2.8666,2.8701,2.8737,2.8765,2.8793,2.8819,2.8838,2.8842,2.887,2.8909,2.8933,2.8978,2.9014,2.9047,2.906,2.9048,2.9048,2.9058,2.9059,2.9056,2.9057,2.8932,2.9045,2.9044,2.9043,2.9043,2.9042,2.8734,2.8767,2.8793,2.8831,2.8851,2.8875,2.8906,2.8918,2.8951,2.8989,2.8988,2.9031,2.9054,2.9097,2.9112,2.9144,2.913,2.9145,2.9149,2.9152,2.9156,2.9051,2.915,2.915,2.915,2.9149,2.9149,0,2.8832,2.8848,2.8883,2.8921,2.895,2.8938,2.8966,2.8992,2.903,2.9053,2.9083,2.9128,2.9163,2.9177,2.921,2.9234,2.9229,2.9242,2.924,2.9243,2.9167,2.9154,2.9246,2.9246,2.9246,2.9245,2.9245,2.9245,2.8886,2.894,2.8945,2.9008,2.9023,2.9067,2.9083,2.9105,2.9124,2.9174,2.9204,2.9213,2.9232,2.9267,2.9298,2.9301,2.9314,2.9329,2.933,2.9258,2.9248,2.9239,2.9227,2.9332,2.9332,2.9402,2.9403,2.9404]}]]